• In Portugal
  • List of Countries
  • For 7 days
  • Water Temperature
  • Satellite Maps
  • Weather Map
  • Weather Widgets
  • user-avatar
    Login

    Hourly Weather Mansa Konko

    Today, 20 July, Friday

    Time Temperature Precipitation Wind Pressure Humidity
    00:00 +27°C° 0 mm 1 mps 759 mmHg 84%
    01:00 +27°C° 0 mm 1 mps 759 mmHg 84%
    02:00 +27°C° 0 mm 1 mps 758 mmHg 85%
    03:00 +27°C° 0.2 mm 1 mps 758 mmHg 85%
    04:00 +27°C° 0.2 mm 1 mps 758 mmHg 86%
    05:00 +27°C° 0 mm 1 mps 759 mmHg 88%
    06:00 +27°C° 0 mm 1 mps 759 mmHg 85%
    07:00 +28°C° 0 mm 1 mps 759 mmHg 82%
    08:00 +29°C° 0 mm 1 mps 759 mmHg 79%
    09:00 +30°C° 0 mm 1 mps 759 mmHg 72%
    10:00 +32°C° 0 mm 1 mps 759 mmHg 66%
    11:00 +31°C° 0 mm 2 mps 759 mmHg 67%
    12:00 +32°C° 1 mm 2 mps 759 mmHg 65%
    13:00 +34°C° 1 mm 2 mps 758 mmHg 64%
    14:00 +34°C° 1 mm 2 mps 758 mmHg 62%
    15:00 +34°C° 1.9 mm 2 mps 758 mmHg 65%
    16:00 +32°C° 1.9 mm 2 mps 758 mmHg 67%
    17:00 +33°C° 1.9 mm 3 mps 758 mmHg 70%
    18:00 +31°C° 0.7 mm 3 mps 758 mmHg 74%
    19:00 +30°C° 0.7 mm 3 mps 758 mmHg 78%
    20:00 +29°C° 0.7 mm 4 mps 758 mmHg 81%
    21:00 +28°C° 0 mm 4 mps 758 mmHg 82%
    22:00 +28°C° 0 mm 3 mps 759 mmHg 83%
    23:00 +28°C° 0 mm 3 mps 759 mmHg 84%

    Tomorrow, 21 July, Saturday

    Time Temperature Precipitation Wind Pressure Humidity
    00:00 +28°C° 0.2 mm 3 mps 759 mmHg 85%
    01:00 +27°C° 0.2 mm 2 mps 759 mmHg 87%
    02:00 +27°C° 0.2 mm 2 mps 759 mmHg 88%
    03:00 +27°C° 0 mm 2 mps 759 mmHg 88%
    04:00 +27°C° 0 mm 2 mps 759 mmHg 89%
    05:00 +27°C° 0 mm 2 mps 759 mmHg 89%
    06:00 +28°C° 0 mm 2 mps 759 mmHg 87%
    07:00 +28°C° 0 mm 2 mps 759 mmHg 84%
    08:00 +28°C° 0 mm 2 mps 759 mmHg 82%
    09:00 +30°C° 0 mm 2 mps 759 mmHg 76%
    10:00 +31°C° 0 mm 2 mps 759 mmHg 70%
    11:00 +32°C° 0 mm 2 mps 759 mmHg 64%
    12:00 +34°C° 0 mm 2 mps 758 mmHg 60%
    13:00 +35°C° 0 mm 2 mps 758 mmHg 57%
    14:00 +36°C° 0 mm 3 mps 757 mmHg 54%
    15:00 +36°C° 0 mm 3 mps 757 mmHg 55%
    16:00 +35°C° 0 mm 3 mps 756 mmHg 56%
    17:00 +35°C° 0 mm 3 mps 756 mmHg 57%
    18:00 +34°C° 0.1 mm 3 mps 757 mmHg 62%
    19:00 +33°C° 0.1 mm 3 mps 757 mmHg 67%
    20:00 +30°C° 0.1 mm 3 mps 758 mmHg 73%
    21:00 +30°C° 0.3 mm 3 mps 758 mmHg 76%
    22:00 +29°C° 0.3 mm 3 mps 758 mmHg 79%
    23:00 +29°C° 0.3 mm 3 mps 759 mmHg 82%

    Day after tomorrow, 22 July, Sunday

    Time Temperature Precipitation Wind Pressure Humidity
    00:00 +28°C° 0.2 mm 3 mps 758 mmHg 83%
    01:00 +28°C° 0.2 mm 3 mps 758 mmHg 84%
    02:00 +28°C° 0.2 mm 3 mps 758 mmHg 86%
    03:00 +27°C° 0 mm 2 mps 757 mmHg 86%
    04:00 +27°C° 0 mm 2 mps 757 mmHg 87%
    05:00 +27°C° 0 mm 2 mps 757 mmHg 88%
    06:00 +28°C° 0 mm 2 mps 757 mmHg 85%
    07:00 +28°C° 0 mm 2 mps 758 mmHg 82%
    08:00 +29°C° 0 mm 2 mps 758 mmHg 79%
    09:00 +30°C° 0.3 mm 2 mps 758 mmHg 74%
    10:00 +31°C° 0.3 mm 2 mps 758 mmHg 69%
    11:00 +32°C° 0.3 mm 1 mps 759 mmHg 65%
    12:00 +31°C° 2.7 mm 1 mps 758 mmHg 71%
    13:00 +30°C° 2.7 mm 1 mps 758 mmHg 77%
    14:00 +29°C° 2.7 mm 2 mps 758 mmHg 84%
    15:00 +29°C° 0.4 mm 2 mps 757 mmHg 83%
    16:00 +29°C° 0.4 mm 2 mps 757 mmHg 82%
    17:00 +29°C° 0.4 mm 2 mps 757 mmHg 82%
    18:00 +28°C° 0.1 mm 2 mps 758 mmHg 84%
    19:00 +28°C° 0.1 mm 2 mps 758 mmHg 86%
    20:00 +27°C° 0.1 mm 2 mps 759 mmHg 89%
    21:00 +27°C° 0 mm 2 mps 759 mmHg 89%
    22:00 +27°C° 0 mm 2 mps 759 mmHg 90%
    23:00 +27°C° 0 mm 2 mps 760 mmHg 90%

    23 July, Monday

    Time Temperature Precipitation Wind Pressure Humidity
    00:00 +27°C° 0 mm 1 mps 759 mmHg 90%
    01:00 +27°C° 0 mm 1 mps 759 mmHg 91%
    02:00 +26°C° 0 mm 1 mps 759 mmHg 91%
    03:00 +26°C° 0 mm 1 mps 759 mmHg 91%
    04:00 +26°C° 0 mm 1 mps 759 mmHg 91%
    05:00 +26°C° 0 mm 1 mps 758 mmHg 91%
    06:00 +27°C° 0 mm 2 mps 759 mmHg 89%
    07:00 +27°C° 0 mm 2 mps 759 mmHg 86%
    08:00 +28°C° 0 mm 2 mps 759 mmHg 84%
    09:00 +29°C° 0 mm 2 mps 760 mmHg 78%
    10:00 +30°C° 0 mm 2 mps 760 mmHg 72%
    11:00 +31°C° 0 mm 2 mps 760 mmHg 67%
    12:00 +32°C° 0 mm 2 mps 760 mmHg 63%
    13:00 +34°C° 0 mm 2 mps 759 mmHg 60%
    14:00 +35°C° 0 mm 2 mps 759 mmHg 56%
    15:00 +34°C° 0.2 mm 2 mps 759 mmHg 58%
    16:00 +34°C° 0.2 mm 2 mps 759 mmHg 61%
    17:00 +33°C° 0.2 mm 3 mps 758 mmHg 63%
    18:00 +31°C° 0 mm 3 mps 759 mmHg 68%
    19:00 +30°C° 0 mm 3 mps 760 mmHg 72%
    20:00 +29°C° 0 mm 3 mps 760 mmHg 76%
    21:00 +29°C° 0 mm 2 mps 761 mmHg 77%
    22:00 +28°C° 0 mm 2 mps 761 mmHg 79%
    23:00 +28°C° 0 mm 2 mps 761 mmHg 81%

    24 July, Tuesday

    Time Temperature Precipitation Wind Pressure Humidity
    00:00 +28°C° 0 mm 2 mps 761 mmHg 82%
    01:00 +27°C° 0 mm 1 mps 760 mmHg 83%
    02:00 +27°C° 0 mm 1 mps 760 mmHg 83%
    03:00 +27°C° 0.1 mm 1 mps 760 mmHg 84%
    04:00 +27°C° 0.1 mm 1 mps 760 mmHg 84%
    05:00 +27°C° 0.1 mm 1 mps 759 mmHg 85%
    06:00 +28°C° 0 mm 1 mps 760 mmHg 82%
    07:00 +28°C° 0 mm 1 mps 760 mmHg 79%
    08:00 +29°C° 0 mm 1 mps 761 mmHg 76%
    09:00 +30°C° 0.1 mm 1 mps 761 mmHg 71%
    10:00 +32°C° 0.1 mm 1 mps 761 mmHg 66%
    11:00 +33°C° 0.1 mm 1 mps 761 mmHg 61%
    12:00 +33°C° 0.2 mm 1 mps 760 mmHg 60%
    13:00 +34°C° 0.2 mm 1 mps 759 mmHg 58%
    14:00 +34°C° 0.2 mm 1 mps 759 mmHg 56%
    15:00 +34°C° 1 mm 2 mps 759 mmHg 60%
    16:00 +33°C° 1 mm 3 mps 758 mmHg 64%
    17:00 +33°C° 1 mm 3 mps 758 mmHg 68%
    18:00 +31°C° 1 mm 3 mps 759 mmHg 72%
    19:00 +29°C° 1 mm 3 mps 760 mmHg 77%
    20:00 +28°C° 1 mm 4 mps 760 mmHg 82%
    21:00 +28°C° 0.1 mm 4 mps 760 mmHg 83%
    22:00 +28°C° 0.1 mm 3 mps 761 mmHg 84%
    23:00 +27°C° 0.1 mm 3 mps 761 mmHg 85%

    25 July, Wednesday

    Time Temperature Precipitation Wind Pressure Humidity
    00:00 +27°C° 0 mm 3 mps 760 mmHg 86%
    01:00 +27°C° 0 mm 3 mps 760 mmHg 87%
    02:00 +27°C° 0 mm 3 mps 759 mmHg 88%
    03:00 +27°C° 0 mm 2 mps 759 mmHg 88%
    04:00 +27°C° 0 mm 2 mps 759 mmHg 88%
    05:00 +27°C° 0 mm 2 mps 759 mmHg 88%
    06:00 +27°C° 0 mm 2 mps 760 mmHg 85%
    07:00 +28°C° 0 mm 2 mps 760 mmHg 82%
    08:00 +28°C° 0 mm 2 mps 761 mmHg 79%
    09:00 +29°C° 0 mm 2 mps 761 mmHg 75%
    10:00 +30°C° 0 mm 2 mps 761 mmHg 71%
    11:00 +31°C° 0 mm 2 mps 761 mmHg 67%
    12:00 +33°C° 0 mm 3 mps 760 mmHg 64%
    13:00 +34°C° 0 mm 3 mps 759 mmHg 61%
    14:00 +34°C° 0 mm 4 mps 759 mmHg 58%
    15:00 +34°C° 0 mm 4 mps 759 mmHg 59%
    16:00 +34°C° 0 mm 4 mps 759 mmHg 60%
    17:00 +34°C° 0 mm 3 mps 759 mmHg 61%
    18:00 +33°C° 0 mm 3 mps 759 mmHg 64%
    19:00 +30°C° 0 mm 3 mps 760 mmHg 68%
    20:00 +29°C° 0 mm 3 mps 760 mmHg 72%
    21:00 +29°C° 0 mm 3 mps 760 mmHg 74%
    22:00 +29°C° 0 mm 3 mps 760 mmHg 75%
    23:00 +28°C° 0 mm 3 mps 760 mmHg 77%
    Show more